[[{"header":{"parameterUnit":"m.s-1","parameterCategory":1,"la1":30.2991,"la2":30.254,"lo1":-89.0895,"lo2":-89.0444,"dy":0.0017,"dx":0.0017,"nx":28,"ny":28,"refTime":"2024-07-04T09:00:00:Z","depth":0,"parameterNumber":2,"parameterNumberName":"U-component_of_WINDS"},"data":[0,0,0,0,0,0,0,0,0,0,0,0,0,0,0,0,0,0,0,0,0,0,0,0,0,0,0,0,0,0,0,0,0,0,0,0,0,0,0,0,0,0,0,0,0,0,0,0,0,0,0,0,0,0,0,0,0,0,4.1458,4.1459,0,4.1579,4.1581,4.1582,4.1541,4.1538,4.1535,4.1533,4.1656,4.1662,4.1668,0,0,0,0,0,0,0,0,0,0,0,0,0,4.1187,4.1192,4.1458,4.1459,4.1461,4.1579,4.1581,4.1582,4.1541,4.1538,4.1535,4.1532,4.1655,4.1661,4.1668,0,0,0,0,0,0,0,0,0,0,0,0,0,4.1306,4.1194,4.1457,4.1454,4.1455,4.1579,4.1581,4.1583,4.1542,4.1538,4.1534,4.153,4.1652,4.1661,4.1669,4.1803,0,0,4.1696,4.1699,0,0,0,0,0,0,0,0,4.1299,4.1316,4.1453,4.1455,4.1456,4.1541,4.1531,4.1657,4.1543,4.1509,4.1533,4.1528,4.1621,4.1632,4.1664,4.1809,4.1814,4.1696,4.1702,4.1705,4.1708,0,0,0,0,0,0,0,4.1291,4.1311,4.1506,4.1455,4.1457,4.1446,4.1458,4.1554,4.1586,4.1512,4.1509,4.1524,4.1621,4.1655,4.1666,4.1816,4.1696,4.1704,4.1709,4.1713,4.2071,4.2076,0,0,0,0,0,0,4.1282,4.1304,4.1502,4.1509,4.1366,4.1454,4.1468,4.1518,4.1585,4.1591,4.1527,4.1521,4.1643,4.1656,4.167,4.1828,4.1705,4.1714,4.1719,4.2067,4.2072,4.2077,0,0,0,0,0,0,4.1277,4.13,4.1497,4.1406,4.143,4.1463,4.1519,4.1522,4.1556,4.1597,4.1602,4.1556,4.164,4.1658,4.1769,4.1831,4.1717,4.1725,4.2062,4.2069,4.2075,4.2145,0,0,0,0,0,0,4.1269,4.1299,4.1351,4.1408,4.1435,4.1595,4.1523,4.1527,4.1571,4.1565,4.1625,4.1632,4.1638,4.1756,4.1778,4.1841,4.1732,4.2057,4.2065,4.2073,4.2137,4.2153,4.2167,0,0,0,0,0,4.126,4.1367,4.1354,4.1378,4.1501,4.1599,4.1614,4.162,4.1577,4.1628,4.1653,4.163,4.1822,4.1768,4.1792,4.1859,4.2053,4.2063,4.2072,4.2131,4.215,4.2167,0,0,0,0,0,0,4.1317,4.1374,4.136,4.1489,4.1539,4.1591,4.1657,4.1641,4.1705,4.1696,4.17,4.1714,4.1827,4.1855,4.1794,4.1989,4.193,4.1945,4.1967,4.1986,4.2,4.199,4.1739,0,0,0,0,0,4.1344,4.142,4.1465,4.1574,4.16,4.1624,4.1667,4.1667,4.1719,4.174,4.1774,4.1825,4.1896,4.1943,4.2011,4.2142,4.2152,4.2199,4.2214,4.2226,4.2238,4.2305,4.2325,4.2109,4.2109,4.2109,0,0,4.1402,4.1443,4.149,4.1587,4.1626,4.1701,4.1643,4.1727,4.1782,4.1753,4.1858,4.1885,4.1942,4.2062,4.2117,4.2088,4.23,4.2238,4.2248,4.2253,4.2317,4.2337,4.2356,4.2116,4.2115,4.2113,0,0,4.1545,4.1585,4.1678,4.1718,4.1777,4.1792,4.1814,4.1869,4.1884,4.1991,4.1969,4.2035,4.2159,4.2199,4.2236,4.2391,4.237,4.2414,4.249,4.2555,4.2572,4.2587,4.2638,4.2657,4.2426,4.2426,4.2426,0,4.1609,4.1724,4.1728,4.1813,4.1854,4.1831,4.1923,4.1962,4.204,4.2069,4.2036,4.2189,4.2226,4.2353,4.239,4.2422,4.2446,4.2406,4.2569,4.2584,4.2598,4.2648,4.2667,4.2431,4.243,4.243,4.2429,0,4.1797,4.1877,4.1945,4.202,4.2069,4.2158,4.2174,4.2224,4.2219,4.2237,4.2343,4.2387,4.2461,4.2492,4.2489,4.2618,4.2598,4.2568,4.2508,4.2623,4.2669,4.2689,4.2437,4.2436,4.2434,4.2433,0,0,4.198,4.2054,4.2079,4.2111,4.2173,4.2234,4.2321,4.2393,4.2434,4.2489,4.2559,4.2663,4.2634,4.2676,4.2677,4.2735,4.285,4.2696,4.2698,4.272,4.299,4.301,4.3032,4.2837,4.2841,4.2844,4.2984,0,4.2125,4.2277,4.2282,4.2419,4.249,4.2468,4.2542,4.2588,4.2607,4.2669,4.2689,4.2761,4.272,4.2744,4.2801,4.2824,4.2903,4.2814,4.29,4.2903,4.2883,4.3057,4.3079,4.3209,4.3002,4.3005,4.3008,0,4.2315,4.2374,4.2518,4.2567,4.2597,4.2664,4.2729,4.279,4.284,4.2849,4.2894,4.2885,4.2971,4.2911,4.3027,4.2966,4.3002,4.3018,4.3023,4.3029,4.296,4.3064,4.3251,4.3269,4.3037,4.3035,4.3032,0,4.2429,4.2545,4.2645,4.2673,4.2734,4.278,4.2808,4.2854,4.2896,4.2953,4.2979,4.3046,4.3082,4.3132,4.3141,4.3097,4.3257,4.3198,4.3264,4.3264,4.3297,4.3294,4.3489,4.3326,4.3325,4.3325,4.3324,0,4.2589,4.2677,4.2696,4.2757,4.2854,4.2859,4.2955,4.2978,4.3019,4.3083,4.3069,4.3129,4.3138,4.32,4.3208,4.3301,4.3318,4.3326,4.3326,4.3326,4.3324,4.3347,4.3336,4.333,4.3329,4.3328,4.3327,0,4.2732,4.2748,4.2855,4.2903,4.2917,4.2986,4.3026,4.3083,4.31,4.318,4.32,4.3225,4.3297,4.3311,4.3397,4.3402,4.3511,4.3505,4.3494,4.3492,4.3556,4.3548,4.377,4.3797,4.3619,4.3621,4.3622,0,4.2831,4.2898,4.2952,4.2993,4.3022,4.309,4.3132,4.3139,4.3183,4.3243,4.3293,4.3363,4.3419,4.3534,4.356,4.3624,4.3616,4.369,4.3626,4.3622,4.3613,4.3607,4.3612,4.3701,4.3703,4.3704,4.3706,0,4.3004,4.3008,4.307,4.3133,4.3183,4.3234,4.3282,4.3317,4.3329,4.338,4.3452,4.3496,4.3582,4.365,4.3714,4.374,4.3724,4.3726,4.3744,4.3742,4.3731,4.3734,4.3523,4.372,4.3719,4.3718,4.3717,4.3716,4.3126,4.3182,4.3228,4.3296,4.3332,4.3377,4.3432,4.3454,4.3515,4.3585,4.3585,4.3664,4.3709,4.3792,4.3823,4.3883,4.386,4.3887,4.3893,4.3899,4.3903,4.3724,4.3895,4.3895,4.3895,4.3894,4.3894,0,4.3295,4.3322,4.3385,4.3451,4.3503,4.3484,4.3536,4.358,4.3649,4.3693,4.3748,4.3829,4.3895,4.3925,4.3989,4.4032,4.4025,4.4048,4.4043,4.4049,4.3922,4.3898,4.4051,4.4051,4.4051,4.4051,4.4051,4.4051,4.3388,4.3482,4.3491,4.3601,4.3628,4.3705,4.3735,4.3775,4.3809,4.3901,4.3955,4.3974,4.4011,4.4077,4.4136,4.4143,4.4165,4.419,4.4193,4.4074,4.4058,4.4043,4.402,4.4196,4.4196,4.4314,4.4315,4.4316]},{"header":{"parameterUnit":"m.s-1","parameterCategory":1,"la1":30.2991,"la2":30.254,"lo1":-89.0895,"lo2":-89.0444,"dy":0.0017,"dx":0.0017,"nx":28,"ny":28,"refTime":"2024-07-04T09:00:00:Z","depth":0,"parameterNumber":3,"parameterNumberName":"V-component_of_WINDS"},"data":[0,0,0,0,0,0,0,0,0,0,0,0,0,0,0,0,0,0,0,0,0,0,0,0,0,0,0,0,0,0,0,0,0,0,0,0,0,0,0,0,0,0,0,0,0,0,0,0,0,0,0,0,0,0,0,0,0,0,1.671,1.671,0,1.6736,1.6736,1.6737,1.6708,1.6707,1.6706,1.6705,1.6731,1.6733,1.6734,0,0,0,0,0,0,0,0,0,0,0,0,0,1.6633,1.6635,1.671,1.671,1.6711,1.6736,1.6736,1.6737,1.6708,1.6707,1.6706,1.6705,1.673,1.6732,1.6734,0,0,0,0,0,0,0,0,0,0,0,0,0,1.6664,1.6635,1.671,1.67,1.6699,1.6736,1.6736,1.6737,1.6709,1.6707,1.6706,1.6704,1.673,1.6732,1.6735,1.6783,0,0,1.6743,1.6744,0,0,0,0,0,0,0,0,1.6662,1.6667,1.6701,1.67,1.67,1.6717,1.6719,1.6752,1.6709,1.6705,1.6705,1.6703,1.6728,1.673,1.6739,1.6784,1.6785,1.6743,1.6744,1.6745,1.6746,0,0,0,0,0,0,0,1.666,1.6665,1.672,1.6701,1.6701,1.6693,1.6695,1.6725,1.6725,1.6705,1.6703,1.6707,1.6727,1.6736,1.6739,1.6786,1.6743,1.6745,1.6747,1.6748,1.687,1.6872,0,0,0,0,0,0,1.6659,1.6664,1.6719,1.6721,1.6676,1.6696,1.6698,1.6713,1.6725,1.6725,1.6708,1.6705,1.6733,1.6736,1.674,1.6796,1.6745,1.6748,1.6749,1.6869,1.6871,1.6873,0,0,0,0,0,0,1.6658,1.6664,1.6718,1.6692,1.6698,1.6699,1.6716,1.6715,1.6724,1.6727,1.6727,1.6718,1.6732,1.6736,1.6772,1.6797,1.6749,1.6751,1.6867,1.6869,1.6872,1.691,0,0,0,0,0,0,1.6656,1.6664,1.6683,1.6693,1.67,1.6751,1.6717,1.6716,1.6729,1.6725,1.6736,1.6736,1.6731,1.6769,1.6775,1.6799,1.6753,1.6864,1.6868,1.6871,1.6906,1.6913,1.6919,0,0,0,0,0,1.6653,1.6693,1.6684,1.6691,1.6724,1.6753,1.6757,1.675,1.6731,1.6749,1.6751,1.6736,1.6793,1.6772,1.6779,1.6805,1.6863,1.6867,1.6871,1.6903,1.6912,1.6919,0,0,0,0,0,0,1.6687,1.6694,1.6684,1.6729,1.674,1.6748,1.6771,1.6759,1.6776,1.6772,1.6763,1.6766,1.6803,1.6808,1.6785,1.6851,1.6825,1.683,1.6847,1.6855,1.6862,1.686,1.6755,0,0,0,0,0,1.6699,1.6723,1.6728,1.6766,1.6772,1.6771,1.6783,1.6777,1.6788,1.6793,1.6797,1.6808,1.6829,1.6842,1.6861,1.6907,1.6908,1.6928,1.6934,1.6939,1.6944,1.6967,1.6975,1.6885,1.6885,1.6885,0,0,1.6725,1.6732,1.6748,1.6773,1.6781,1.6805,1.6775,1.6802,1.6819,1.6797,1.6831,1.6834,1.6846,1.6886,1.6904,1.6891,1.6969,1.6944,1.6949,1.695,1.6972,1.698,1.6988,1.6888,1.6888,1.6887,0,0,1.6785,1.6793,1.6825,1.6834,1.6846,1.6845,1.6853,1.6862,1.6863,1.6897,1.688,1.69,1.6936,1.6944,1.6954,1.7015,1.7001,1.7021,1.7055,1.7078,1.7085,1.7091,1.7112,1.7119,1.7026,1.7026,1.7026,0,1.6816,1.6852,1.6844,1.6871,1.6882,1.6863,1.6895,1.6903,1.6922,1.6929,1.6914,1.6957,1.6964,1.7005,1.702,1.7029,1.7036,1.702,1.7084,1.7091,1.7096,1.7116,1.7124,1.7028,1.7028,1.7028,1.7028,0,1.6888,1.6913,1.6937,1.6955,1.6969,1.6999,1.6994,1.7009,1.7001,1.7001,1.7035,1.7042,1.7061,1.7071,1.7064,1.7111,1.7102,1.7086,1.7059,1.7107,1.7126,1.7133,1.7032,1.7031,1.703,1.703,0,0,1.6971,1.6982,1.6992,1.6999,1.701,1.7029,1.7057,1.7076,1.7088,1.7101,1.7124,1.7154,1.7138,1.7149,1.7142,1.7162,1.7208,1.7143,1.7143,1.7154,1.7259,1.7271,1.728,1.7199,1.7201,1.7202,1.7258,0,1.703,1.7079,1.7072,1.7119,1.7141,1.7122,1.7146,1.7156,1.7156,1.7174,1.7174,1.7195,1.7174,1.7179,1.7198,1.7199,1.7229,1.7195,1.7219,1.722,1.7217,1.729,1.7303,1.7356,1.7265,1.7267,1.7268,0,1.7106,1.7121,1.717,1.7177,1.7186,1.7208,1.7224,1.7242,1.7251,1.725,1.7261,1.725,1.7277,1.7249,1.7286,1.7262,1.7272,1.7274,1.7276,1.7277,1.7247,1.7293,1.7372,1.738,1.7279,1.7278,1.7277,0,1.7159,1.7192,1.7225,1.7232,1.7241,1.7257,1.7261,1.7269,1.7281,1.7295,1.7302,1.7318,1.7328,1.734,1.7334,1.7315,1.7371,1.7344,1.737,1.737,1.7383,1.7382,1.7464,1.739,1.739,1.739,1.739,0,1.7226,1.7256,1.7249,1.727,1.7303,1.7294,1.7327,1.7329,1.7336,1.7356,1.7341,1.736,1.735,1.7368,1.7364,1.7394,1.7398,1.7397,1.7395,1.7398,1.7398,1.7404,1.74,1.7392,1.7391,1.7391,1.7391,0,1.7292,1.7288,1.7323,1.7329,1.7331,1.7355,1.7359,1.7377,1.7376,1.7401,1.7407,1.7404,1.7424,1.7419,1.7442,1.7438,1.7476,1.747,1.7473,1.7471,1.7498,1.7495,1.7586,1.7597,1.7516,1.7517,1.7518,0,1.7334,1.7357,1.7365,1.7377,1.7382,1.7402,1.7414,1.7405,1.7418,1.7429,1.7446,1.7465,1.748,1.7512,1.7512,1.7529,1.7523,1.7553,1.7525,1.7527,1.7522,1.752,1.7522,1.7559,1.756,1.7561,1.7561,0,1.7409,1.7406,1.7423,1.7439,1.7453,1.7465,1.7476,1.7487,1.7479,1.7494,1.7514,1.7525,1.7547,1.7566,1.7581,1.7584,1.7571,1.757,1.7577,1.758,1.758,1.7579,1.7487,1.7568,1.7567,1.7567,1.7566,1.7566,1.7464,1.7483,1.7491,1.751,1.7517,1.7527,1.7545,1.7545,1.7562,1.7579,1.7573,1.7596,1.7604,1.7622,1.7628,1.7645,1.7633,1.7644,1.7646,1.7648,1.7651,1.7578,1.7648,1.7648,1.7647,1.7647,1.7647,0,1.7537,1.7541,1.7559,1.7574,1.7589,1.7575,1.7586,1.7599,1.762,1.7628,1.7642,1.7665,1.7683,1.7684,1.77,1.7713,1.7708,1.7718,1.7716,1.7717,1.7661,1.7653,1.7722,1.7722,1.7722,1.7722,1.7722,1.7722,1.7577,1.7608,1.7606,1.764,1.7643,1.7665,1.7673,1.7682,1.7688,1.7714,1.7728,1.7729,1.7734,1.775,1.7765,1.7765,1.7771,1.7783,1.7781,1.7729,1.7721,1.7714,1.7707,1.7785,1.7785,1.7835,1.7836,1.7836]}]]